Regional Weather Roundup
Issued by NWS New Orleans/Baton Rouge, LA

Home | Current Version | Previous Version | Graphics & Text | Print | Product List | Glossary On
Versions: 1 2 3 4 5 6 7 8 9 10 11 12 13 14 15 16 17 18 19 20 21 22 23 24 25 26 27 28 29 30 31 32 33 34 35 36 37 38 39 40 41 42 43 44 45 46 47 48 49 50
908
ASUS44 KLIX 200501
RWRLIX
NEW ORLEANS REGIONAL WEATHER ROUNDUP
NATIONAL WEATHER SERVICE NEW ORLEANS LA
1200 AM CDT WED AUG 20 2014

NOTE: "FAIR" INDICATES FEW OR NO CLOUDS BELOW 12,000 FEET WITH NO
      SIGNIFICANT WEATHER AND/OR OBSTRUCTIONS TO VISIBILITY.
      SKY/WX - SKY CONDITION AND SIGNIFICANT WEATHER.
      TMP - AIR TEMPERATURE.     DP    - DEWPOINT TEMPERATURE.
      RH  - RELATIVE HUMIDITY.   PRES  - PRESSURE.
      HI  - HEAT INDEX.          WCI   - WIND CHILL INDEX.

*  THESE STATIONS ARE NOT NWS OR FAA STATIONS AND ARE NOT UNDER
   NWS QUALITY CONTROL.

LAZ038-040-048-061>063-065>067-069-200600-
SOUTHEAST LOUISIANA

CITY           SKY/WX    TMP DP  RH WIND       PRES   REMARKS
N.O. AUDUBON   NOT AVBL
N.O. INTL ARPT MOCLDY    81  75  82 CALM      29.99S
N.O. LAKEFRONT PTCLDY    84  75  74 SW5       30.00S
N.O. DOWNTOWN*   N/A     84  72  65 S3        30.00S
SLIDELL        CLEAR     77  73  87 CALM      29.98F
BATON ROUGE    PTCLDY    76  70  82 CALM      29.98F
BOOTHVILLE     PTCLDY    83  75  77 S7        30.01S
BELLE CHASSE   PTCLDY    78  74  87 CALM      29.99S
BOGALUSA*        N/A     78  73  83 CALM      30.00S
GALLIANO*      NOT AVBL
NEW ROADS*       N/A     73  73  97 CALM      29.98S
GONZALES*        N/A     74  74 100 CALM      29.98F
HAMMOND*       NOT AVBL
HOUMA*         CLEAR     77  73  87 CALM      30.00S
PORT FOURCHON* CLEAR     86  75  70 S5        30.02S HX  95

$$

MSZ070-080>082-200600-
SOUTHERN MISSISSIPPI

CITY           SKY/WX    TMP DP  RH WIND       PRES   REMARKS
MCCOMB         MOCLDY    77  73  87 W3        29.99S
GULFPORT       PTCLDY    81  74  79 CALM      29.97F
BILOXI         PTCLDY    83  76  79 SW9       29.98F
PASCAGOULA     CLEAR     79  76  90 S3        29.98F

$$

COASTAL OBSERVATIONS
LAKE AND NEARSHORE STATIONS

STATION/POSITION TIME  TEMP    WIND        PRES    WAVE
                       AIR SEA DIR/SP/G            HT/PER
                 (UTC) (F)     (DEG/KT/KT) (MB)    (FT/S)
PASCAGOULA       0400   85     190/  6/  7 1015.4
WAVELAND YACHT   0400   82     210/  3/  5 1014.9
GRAND ISLE       0400   84 88  180/  2/  4 1016.7
SOUTHWEST PASS   0400   84 89  160/  3/  4 1016.7
NEW CANAL        0400   84 84  220/  1/  2 1016.0
SHELL BEACH      0400   82 82  190/  6/  6 1015.5

OFFSHORE STATIONS

STATION/POSITION TIME  TEMP    WIND        PRES    WAVE
                       AIR SEA DIR/SP/G            HT/PER
                 (UTC) (F)     (DEG/KT/KT) (MB)    (FT/S)
64 S DAUPHIN ISL 0422   85 87  200/  6/  6 1016.6

$$




USA.gov is the U.S. government's official web portal to all federal, state and local government web resources and services.